Location: Ballingbuur
(53.0000°N, 5.7667°E)
Time: 21:15:53
(UTC+00:00)

Cosmos 1844 Rocket - Pass Details

Date: 29 November 2020
Orbit: 824 x 845 km, 71.0° (Epoch: 25 January)

Event Time Altitude Azimuth Distance (km) Brightness Sun altitude
Rises 05:54:18 0° 218° (SW) 3,382 5.6 -12.9°
Reaches altitude 10° 05:56:45 10° 221° (SW) 2,454 4.9 -12.5°
Maximum altitude 06:02:22 69° 305° (NW) 903 2.6 -11.7°
Drops below altitude 10° 06:08:03 10° 29° (NNE) 2,478 5.2 -10.9°
Sets 06:10:32 0° 32° (NNE) 3,417 6.0 -10.6°
